Time,TemperatureF,DewpointF,PressureIn,WindDirection,WindDirectionDegrees,WindSpeedMPH,WindSpeedGustMPH,Humidity,HourlyPrecipIn,Conditions,Clouds,dailyrainin,SoftwareType,DateUTC
2013-08-17 00:03:00,68.4,63.0,30.11,North,0,0.0,0.0,83,0.00,,CLR,0.00,VWS V14.01,2013-08-17 05:03:00,
2013-08-17 00:08:00,68.3,62.9,30.11,North,0,0.0,0.0,83,0.00,,CLR,0.00,VWS V14.01,2013-08-17 05:08:00,
2013-08-17 00:13:00,68.3,62.9,30.11,North,0,0.0,2.0,83,0.00,,CLR,0.00,VWS V14.01,2013-08-17 05:13:00,
2013-08-17 00:18:00,68.3,62.9,30.12,North,6,0.0,2.0,83,0.00,,CLR,0.00,VWS V14.01,2013-08-17 05:18:00,
2013-08-17 00:24:00,68.3,62.9,30.12,ENE,68,0.0,3.0,83,0.00,,CLR,0.00,VWS V14.01,2013-08-17 05:24:00,
2013-08-17 00:29:00,68.1,62.8,30.12,ENE,76,0.0,5.0,83,0.00,,CLR,0.00,VWS V14.01,2013-08-17 05:29:00,
2013-08-17 00:34:00,68.1,62.8,30.12,ENE,75,0.0,5.0,83,0.00,,CLR,0.00,VWS V14.01,2013-08-17 05:34:00,
2013-08-17 00:39:00,67.9,62.9,30.12,ENE,76,2.0,5.0,84,0.00,,CLR,0.00,VWS V14.01,2013-08-17 05:39:00,
2013-08-17 00:44:00,67.8,62.8,30.12,ENE,68,1.0,5.0,84,0.00,,CLR,0.00,VWS V14.01,2013-08-17 05:44:00,
2013-08-17 00:49:00,67.8,62.8,30.12,ENE,73,0.0,6.0,84,0.00,,CLR,0.00,VWS V14.01,2013-08-17 05:49:00,
2013-08-17 00:54:00,67.6,62.9,30.12,ENE,75,3.0,6.0,85,0.00,,CLR,0.00,VWS V14.01,2013-08-17 05:54:00,
2013-08-17 00:59:00,67.4,62.7,30.12,East,80,0.0,6.0,85,0.00,,CLR,0.00,VWS V14.01,2013-08-17 05:59:00,
2013-08-17 01:04:00,67.1,62.8,30.12,East,80,0.0,5.0,86,0.00,,CLR,0.00,VWS V14.01,2013-08-17 06:04:00,
2013-08-17 01:09:00,66.9,62.6,30.12,East,89,1.0,5.0,86,0.00,,CLR,0.00,VWS V14.01,2013-08-17 06:09:00,
2013-08-17 01:14:00,66.9,62.6,30.12,East,80,0.0,5.0,86,0.00,,CLR,0.00,VWS V14.01,2013-08-17 06:14:00,
2013-08-17 01:19:00,66.8,62.5,30.12,East,80,1.0,5.0,86,0.00,,CLR,0.00,VWS V14.01,2013-08-17 06:19:00,
2013-08-17 01:24:00,66.6,62.3,30.12,East,80,0.0,5.0,86,0.00,,CLR,0.00,VWS V14.01,2013-08-17 06:24:00,
2013-08-17 01:29:00,66.4,62.4,30.12,East,80,0.0,5.0,87,0.00,,CLR,0.00,VWS V14.01,2013-08-17 06:29:00,
2013-08-17 01:34:00,66.3,62.3,30.12,East,80,0.0,5.0,87,0.00,,CLR,0.00,VWS V14.01,2013-08-17 06:34:00,
2013-08-17 01:39:00,66.3,62.3,30.12,East,80,0.0,5.0,87,0.00,,CLR,0.00,VWS V14.01,2013-08-17 06:39:00,
2013-08-17 01:44:00,66.1,62.5,30.12,East,80,0.0,5.0,88,0.00,,CLR,0.00,VWS V14.01,2013-08-17 06:44:00,
2013-08-17 01:49:00,66.1,62.1,30.12,East,80,0.0,5.0,87,0.00,,CLR,0.00,VWS V14.01,2013-08-17 06:49:00,
2013-08-17 01:54:00,66.0,61.7,30.12,East,79,0.0,5.0,86,0.00,,CLR,0.00,VWS V14.01,2013-08-17 06:54:00,
2013-08-17 01:59:00,66.0,62.0,30.12,East,79,0.0,5.0,87,0.00,,CLR,0.00,VWS V14.01,2013-08-17 06:59:00,
2013-08-17 02:04:00,65.8,62.2,30.12,East,79,0.0,3.0,88,0.00,,CLR,0.00,VWS V14.01,2013-08-17 07:04:00,
2013-08-17 02:09:00,65.6,62.0,30.12,East,79,1.0,3.0,88,0.00,,CLR,0.00,VWS V14.01,2013-08-17 07:09:00,
2013-08-17 02:14:00,65.6,62.0,30.12,ENE,75,2.0,5.0,88,0.00,,CLR,0.00,VWS V14.01,2013-08-17 07:14:00,
2013-08-17 02:19:00,65.6,62.0,30.12,ENE,75,0.0,5.0,88,0.00,,CLR,0.00,VWS V14.01,2013-08-17 07:19:00,
2013-08-17 02:24:00,65.5,61.9,30.12,ENE,75,0.0,5.0,88,0.00,,CLR,0.00,VWS V14.01,2013-08-17 07:24:00,
2013-08-17 02:29:00,65.3,61.7,30.12,ENE,75,0.0,5.0,88,0.00,,CLR,0.00,VWS V14.01,2013-08-17 07:29:00,
2013-08-17 02:34:00,65.3,61.7,30.12,ENE,75,0.0,5.0,88,0.00,,CLR,0.00,VWS V14.01,2013-08-17 07:34:00,
2013-08-17 02:39:00,65.2,61.6,30.12,ENE,75,0.0,5.0,88,0.00,,CLR,0.00,VWS V14.01,2013-08-17 07:39:00,
2013-08-17 02:44:00,65.2,61.2,30.12,ENE,78,3.0,5.0,87,0.00,,CLR,0.00,VWS V14.01,2013-08-17 07:44:00,
2013-08-17 02:49:00,65.2,61.6,30.12,East,80,0.0,5.0,88,0.00,,CLR,0.00,VWS V14.01,2013-08-17 07:49:00,
2013-08-17 02:54:00,65.2,61.6,30.12,ENE,72,0.0,5.0,88,0.00,,CLR,0.00,VWS V14.01,2013-08-17 07:54:00,
2013-08-17 02:59:00,65.0,61.4,30.12,ENE,72,0.0,5.0,88,0.00,,CLR,0.00,VWS V14.01,2013-08-17 07:59:00,
2013-08-17 03:04:00,65.0,61.4,30.12,ENE,72,0.0,2.0,88,0.00,,CLR,0.00,VWS V14.01,2013-08-17 08:04:00,
2013-08-17 03:09:00,65.0,61.4,30.12,ENE,72,0.0,2.0,88,0.00,,CLR,0.00,VWS V14.01,2013-08-17 08:09:00,
2013-08-17 03:14:00,64.8,61.2,30.12,ENE,72,1.0,2.0,88,0.00,,CLR,0.00,VWS V14.01,2013-08-17 08:14:00,
2013-08-17 03:19:00,64.8,61.2,30.12,ENE,72,0.0,2.0,88,0.00,,CLR,0.00,VWS V14.01,2013-08-17 08:19:00,
2013-08-17 03:24:00,64.7,61.4,30.12,ENE,72,0.0,2.0,89,0.00,,CLR,0.00,VWS V14.01,2013-08-17 08:24:00,
2013-08-17 03:29:00,64.7,61.4,30.12,ENE,72,0.0,2.0,89,0.00,,CLR,0.00,VWS V14.01,2013-08-17 08:29:00,
2013-08-17 03:35:00,64.7,61.4,30.12,ENE,72,0.0,2.0,89,0.00,,CLR,0.00,VWS V14.01,2013-08-17 08:35:00,
2013-08-17 03:40:00,64.5,61.2,30.12,ENE,72,0.0,2.0,89,0.00,,CLR,0.00,VWS V14.01,2013-08-17 08:40:00,
2013-08-17 03:45:00,64.5,60.9,30.12,ENE,72,0.0,2.0,88,0.00,,CLR,0.00,VWS V14.01,2013-08-17 08:45:00,
2013-08-17 03:50:00,64.5,61.2,30.12,ENE,72,0.0,2.0,89,0.00,,CLR,0.00,VWS V14.01,2013-08-17 08:50:00,
2013-08-17 03:55:00,64.5,60.5,30.12,ENE,69,2.0,2.0,87,0.00,,CLR,0.00,VWS V14.01,2013-08-17 08:55:00,
2013-08-17 04:00:00,64.3,60.3,30.12,ENE,71,0.0,5.0,87,0.00,,CLR,0.00,VWS V14.01,2013-08-17 09:00:00,
2013-08-17 04:05:00,64.3,61.0,30.12,ENE,71,0.0,2.0,89,0.00,,CLR,0.00,VWS V14.01,2013-08-17 09:05:00,
2013-08-17 04:10:00,64.3,61.0,30.12,ENE,71,0.0,2.0,89,0.00,,CLR,0.00,VWS V14.01,2013-08-17 09:10:00,
2013-08-17 04:15:00,64.2,60.9,30.12,ENE,69,0.0,2.0,89,0.00,,CLR,0.00,VWS V14.01,2013-08-17 09:15:00,
2013-08-17 04:20:00,64.2,60.9,30.12,ENE,71,0.0,2.0,89,0.00,,CLR,0.00,VWS V14.01,2013-08-17 09:20:00,
2013-08-17 04:25:00,64.0,60.7,30.12,ENE,71,0.0,2.0,89,0.00,,CLR,0.00,VWS V14.01,2013-08-17 09:25:00,
2013-08-17 04:30:00,64.0,60.7,30.12,ENE,71,0.0,2.0,89,0.00,,CLR,0.00,VWS V14.01,2013-08-17 09:30:00,
2013-08-17 04:35:00,64.0,60.7,30.12,ENE,71,0.0,2.0,89,0.00,,CLR,0.00,VWS V14.01,2013-08-17 09:35:00,
2013-08-17 04:40:00,63.9,60.6,30.12,ENE,71,0.0,2.0,89,0.00,,CLR,0.00,VWS V14.01,2013-08-17 09:40:00,
2013-08-17 04:45:00,63.9,60.6,30.12,ENE,69,0.0,2.0,89,0.00,,CLR,0.00,VWS V14.01,2013-08-17 09:45:00,
2013-08-17 04:50:00,63.9,60.6,30.12,ENE,71,0.0,2.0,89,0.00,,CLR,0.00,VWS V14.01,2013-08-17 09:50:00,
2013-08-17 04:55:00,63.7,60.4,30.12,NE,45,0.0,2.0,89,0.00,,CLR,0.00,VWS V14.01,2013-08-17 09:55:00,
2013-08-17 05:00:00,63.7,60.4,30.12,NE,45,0.0,1.0,89,0.00,,CLR,0.00,VWS V14.01,2013-08-17 10:00:00,
2013-08-17 05:05:00,63.5,60.5,30.12,NE,45,0.0,2.0,90,0.00,,CLR,0.00,VWS V14.01,2013-08-17 10:05:00,
2013-08-17 05:10:00,63.5,60.5,30.12,NE,45,0.0,2.0,90,0.00,,CLR,0.00,VWS V14.01,2013-08-17 10:10:00,
2013-08-17 05:15:00,63.4,60.4,30.12,NE,45,0.0,2.0,90,0.00,,CLR,0.00,VWS V14.01,2013-08-17 10:15:00,
2013-08-17 05:20:00,63.4,60.4,30.12,NE,45,0.0,2.0,90,0.00,,CLR,0.00,VWS V14.01,2013-08-17 10:20:00,
2013-08-17 05:25:00,63.4,60.4,30.12,NE,45,0.0,2.0,90,0.00,,CLR,0.00,VWS V14.01,2013-08-17 10:25:00,
2013-08-17 05:30:00,63.4,60.4,30.12,NE,45,0.0,2.0,90,0.00,,CLR,0.00,VWS V14.01,2013-08-17 10:30:00,
2013-08-17 05:35:00,63.4,60.4,30.12,NE,45,0.0,2.0,90,0.00,,CLR,0.00,VWS V14.01,2013-08-17 10:35:00,
2013-08-17 05:40:00,63.2,60.2,30.12,NE,45,0.0,2.0,90,0.00,,CLR,0.00,VWS V14.01,2013-08-17 10:40:00,
2013-08-17 05:45:00,63.2,60.2,30.12,NE,45,0.0,2.0,90,0.00,,CLR,0.00,VWS V14.01,2013-08-17 10:45:00,
2013-08-17 05:50:00,63.2,60.2,30.12,NE,45,0.0,2.0,90,0.00,,CLR,0.00,VWS V14.01,2013-08-17 10:50:00,
2013-08-17 05:55:00,63.1,60.1,30.12,NE,45,0.0,2.0,90,0.00,,CLR,0.00,VWS V14.01,2013-08-17 10:55:00,
2013-08-17 06:00:00,63.1,60.1,30.13,NE,45,0.0,0.0,90,0.00,,CLR,0.00,VWS V14.01,2013-08-17 11:00:00,
2013-08-17 06:05:00,63.1,60.1,30.13,NE,45,0.0,2.0,90,0.00,,CLR,0.00,VWS V14.01,2013-08-17 11:05:00,
2013-08-17 06:10:00,62.9,59.9,30.13,NE,45,0.0,2.0,90,0.00,,CLR,0.00,VWS V14.01,2013-08-17 11:10:00,
2013-08-17 06:15:00,62.7,59.7,30.13,NE,45,0.0,2.0,90,0.00,,CLR,0.00,VWS V14.01,2013-08-17 11:15:00,
2013-08-17 06:20:00,62.7,60.0,30.13,NE,45,0.0,2.0,91,0.00,,CLR,0.00,VWS V14.01,2013-08-17 11:20:00,
2013-08-17 06:26:00,62.7,60.0,30.13,NE,45,0.0,2.0,91,0.00,,CLR,0.00,VWS V14.01,2013-08-17 11:26:00,
2013-08-17 06:31:00,62.7,60.0,30.13,NE,45,0.0,2.0,91,0.00,,CLR,0.00,VWS V14.01,2013-08-17 11:31:00,
2013-08-17 06:36:00,62.7,60.0,30.13,NE,45,0.0,2.0,91,0.00,,CLR,0.00,VWS V14.01,2013-08-17 11:36:00,
2013-08-17 06:41:00,62.7,60.0,30.13,NE,45,0.0,2.0,91,0.00,,CLR,0.00,VWS V14.01,2013-08-17 11:41:00,
2013-08-17 06:46:00,62.7,60.0,30.14,NE,45,0.0,2.0,91,0.00,,CLR,0.00,VWS V14.01,2013-08-17 11:46:00,
2013-08-17 06:51:00,62.7,60.0,30.14,NE,45,0.0,2.0,91,0.00,,CLR,0.00,VWS V14.01,2013-08-17 11:51:00,
2013-08-17 06:56:00,62.7,60.0,30.14,NE,45,0.0,2.0,91,0.00,,CLR,0.00,VWS V14.01,2013-08-17 11:56:00,
2013-08-17 07:01:00,62.7,59.7,30.14,NE,49,0.0,0.0,90,0.00,,CLR,0.00,VWS V14.01,2013-08-17 12:01:00,
2013-08-17 07:06:00,62.7,60.0,30.14,ENE,58,0.0,1.0,91,0.00,,CLR,0.00,VWS V14.01,2013-08-17 12:06:00,
2013-08-17 07:07:00,62.7,60.0,30.14,ENE,58,0.0,1.0,91,0.00,,CLR,0.00,VWS V14.01,2013-08-17 12:07:00,
2013-08-17 07:12:00,62.7,60.3,30.14,NE,52,2.0,2.0,92,0.00,,CLR,0.00,VWS V14.01,2013-08-17 12:12:00,
2013-08-17 07:17:00,62.7,60.3,30.14,NE,52,0.0,2.0,92,0.00,,CLR,0.00,VWS V14.01,2013-08-17 12:17:00,
2013-08-17 07:22:00,62.9,60.5,30.14,NE,52,0.0,2.0,92,0.00,,CLR,0.00,VWS V14.01,2013-08-17 12:22:00,
2013-08-17 07:27:00,62.9,60.5,30.14,NE,52,0.0,2.0,92,0.00,,CLR,0.00,VWS V14.01,2013-08-17 12:27:00,
2013-08-17 07:32:00,63.1,60.7,30.15,NE,52,0.0,2.0,92,0.00,,CLR,0.00,VWS V14.01,2013-08-17 12:32:00,
2013-08-17 07:37:00,63.2,60.8,30.15,NE,52,0.0,2.0,92,0.00,,CLR,0.00,VWS V14.01,2013-08-17 12:37:00,
2013-08-17 07:42:00,63.4,61.0,30.15,NE,52,0.0,2.0,92,0.00,,CLR,0.00,VWS V14.01,2013-08-17 12:42:00,
2013-08-17 07:47:00,63.5,61.1,30.15,NE,35,0.0,2.0,92,0.00,,CLR,0.00,VWS V14.01,2013-08-17 12:47:00,
2013-08-17 07:52:00,63.5,60.8,30.15,NNE,30,0.0,2.0,91,0.00,,CLR,0.00,VWS V14.01,2013-08-17 12:52:00,
2013-08-17 07:57:00,63.7,61.0,30.15,NNE,27,0.0,2.0,91,0.00,,CLR,0.00,VWS V14.01,2013-08-17 12:57:00,
2013-08-17 08:02:00,64.0,61.3,30.15,ENE,73,0.0,2.0,91,0.00,,,0.00,VWS V14.01,2013-08-17 13:02:00,
2013-08-17 08:07:00,64.5,61.5,30.15,North,353,0.0,2.0,90,0.00,,,0.00,VWS V14.01,2013-08-17 13:07:00,
2013-08-17 08:12:00,65.0,61.7,30.15,North,352,0.0,2.0,89,0.00,,,0.00,VWS V14.01,2013-08-17 13:12:00,
2013-08-17 08:17:00,65.5,61.9,30.15,East,97,0.0,2.0,88,0.00,,,0.00,VWS V14.01,2013-08-17 13:17:00,
2013-08-17 08:22:00,66.0,61.7,30.15,East,100,0.0,2.0,86,0.00,,,0.00,VWS V14.01,2013-08-17 13:22:00,
2013-08-17 08:27:00,66.0,61.4,30.15,ENE,61,1.0,2.0,85,0.00,,,0.00,VWS V14.01,2013-08-17 13:27:00,
2013-08-17 08:32:00,66.4,62.1,30.15,ENE,61,0.0,2.0,86,0.00,,,0.00,VWS V14.01,2013-08-17 13:32:00,
2013-08-17 08:37:00,66.6,62.0,30.15,ENE,65,2.0,5.0,85,0.00,,,0.00,VWS V14.01,2013-08-17 13:37:00,
2013-08-17 08:42:00,66.8,61.5,30.15,ENE,66,2.0,5.0,83,0.00,,,0.00,VWS V14.01,2013-08-17 13:42:00,
2013-08-17 08:47:00,67.1,61.4,30.15,ENE,58,3.0,6.0,82,0.00,,,0.00,VWS V14.01,2013-08-17 13:47:00,
2013-08-17 08:52:00,67.4,61.7,30.15,ENE,62,0.0,6.0,82,0.00,,,0.00,VWS V14.01,2013-08-17 13:52:00,
2013-08-17 08:57:00,67.9,61.5,30.15,NNE,24,0.0,6.0,80,0.00,,,0.00,VWS V14.01,2013-08-17 13:57:00,
2013-08-17 09:02:00,68.6,62.2,30.15,North,11,0.0,0.0,80,0.00,,CLR,0.00,VWS V14.01,2013-08-17 14:02:00,
2013-08-17 09:07:00,69.1,61.6,30.15,North,8,0.0,2.0,77,0.00,,CLR,0.00,VWS V14.01,2013-08-17 14:07:00,
2013-08-17 09:12:00,69.4,61.1,30.15,NW,322,0.0,2.0,75,0.00,,CLR,0.00,VWS V14.01,2013-08-17 14:12:00,
2013-08-17 09:17:00,69.6,61.7,30.15,ENE,65,0.0,2.0,76,0.00,,CLR,0.00,VWS V14.01,2013-08-17 14:17:00,
2013-08-17 09:22:00,69.9,61.6,30.15,ENE,72,0.0,5.0,75,0.00,,CLR,0.00,VWS V14.01,2013-08-17 14:22:00,
2013-08-17 09:27:00,69.8,61.2,30.15,NE,52,2.0,7.0,74,0.00,,CLR,0.00,VWS V14.01,2013-08-17 14:27:00,
2013-08-17 09:32:00,69.9,61.6,30.15,East,89,1.0,7.0,75,0.00,,CLR,0.00,VWS V14.01,2013-08-17 14:32:00,
2013-08-17 09:37:00,70.6,61.9,30.15,ENE,59,0.0,7.0,74,0.00,,CLR,0.00,VWS V14.01,2013-08-17 14:37:00,
2013-08-17 09:43:00,71.1,62.4,30.15,ENE,66,1.0,7.0,74,0.00,,CLR,0.00,VWS V14.01,2013-08-17 14:43:00,
2013-08-17 09:48:00,71.5,62.0,30.15,ENE,66,0.0,7.0,72,0.00,,CLR,0.00,VWS V14.01,2013-08-17 14:48:00,
2013-08-17 09:53:00,72.1,62.6,30.15,ENE,66,0.0,7.0,72,0.00,,CLR,0.00,VWS V14.01,2013-08-17 14:53:00,
2013-08-17 09:58:00,72.1,62.2,30.15,North,356,0.0,7.0,71,0.00,,CLR,0.00,VWS V14.01,2013-08-17 14:58:00,
2013-08-17 10:03:00,72.0,60.9,30.15,North,359,0.0,2.0,68,0.00,,CLR,0.00,VWS V14.01,2013-08-17 15:03:00,
2013-08-17 10:08:00,72.3,62.0,30.15,NNE,16,0.0,2.0,70,0.00,,CLR,0.00,VWS V14.01,2013-08-17 15:08:00,
2013-08-17 10:13:00,72.7,61.1,30.15,North,0,0.0,2.0,67,0.00,,CLR,0.00,VWS V14.01,2013-08-17 15:13:00,
2013-08-17 10:18:00,73.2,61.2,30.15,North,11,0.0,5.0,66,0.00,,CLR,0.00,VWS V14.01,2013-08-17 15:18:00,
2013-08-17 10:23:00,73.5,61.5,30.15,East,82,1.0,5.0,66,0.00,,CLR,0.00,VWS V14.01,2013-08-17 15:23:00,
2013-08-17 10:28:00,73.5,61.0,30.15,ENE,71,2.0,5.0,65,0.00,,CLR,0.00,VWS V14.01,2013-08-17 15:28:00,
2013-08-17 10:33:00,73.5,60.2,30.15,North,354,0.0,5.0,63,0.00,,CLR,0.00,VWS V14.01,2013-08-17 15:33:00,
2013-08-17 10:38:00,74.0,60.2,30.15,North,0,0.0,5.0,62,0.00,,CLR,0.00,VWS V14.01,2013-08-17 15:38:00,
2013-08-17 10:43:00,74.2,60.4,30.15,NE,37,1.0,5.0,62,0.00,,CLR,0.00,VWS V14.01,2013-08-17 15:43:00,
2013-08-17 10:48:00,74.0,59.7,30.15,ENE,64,0.0,6.0,61,0.00,,CLR,0.00,VWS V14.01,2013-08-17 15:48:00,
2013-08-17 10:53:00,73.9,61.0,30.15,North,359,5.0,6.0,64,0.00,,CLR,0.00,VWS V14.01,2013-08-17 15:53:00,
2013-08-17 10:58:00,74.6,60.3,30.15,ENE,72,0.0,6.0,61,0.00,,CLR,0.00,VWS V14.01,2013-08-17 15:58:00,
2013-08-17 11:03:00,74.7,60.4,30.16,ENE,66,0.0,5.0,61,0.00,,FEW030,0.00,VWS V14.01,2013-08-17 16:03:00,
2013-08-17 11:08:00,74.7,60.4,30.16,North,0,2.0,5.0,61,0.00,,FEW030,0.00,VWS V14.01,2013-08-17 16:08:00,
2013-08-17 11:13:00,75.6,60.3,30.16,North,10,2.0,5.0,59,0.00,,FEW030,0.00,VWS V14.01,2013-08-17 16:13:00,
2013-08-17 11:18:00,76.1,60.8,30.16,North,356,0.0,6.0,59,0.00,,FEW030,0.00,VWS V14.01,2013-08-17 16:18:00,
2013-08-17 11:23:00,76.0,60.7,30.16,NW,326,0.0,6.0,59,0.00,,FEW030,0.00,VWS V14.01,2013-08-17 16:23:00,
2013-08-17 11:28:00,76.0,59.7,30.16,North,359,1.0,6.0,57,0.00,,FEW030,0.00,VWS V14.01,2013-08-17 16:28:00,
2013-08-17 11:33:00,75.8,60.5,30.16,ENE,71,0.0,6.0,59,0.00,,FEW030,0.00,VWS V14.01,2013-08-17 16:33:00,
2013-08-17 11:38:00,76.0,61.1,30.16,ENE,68,5.0,6.0,60,0.00,,FEW030,0.00,VWS V14.01,2013-08-17 16:38:00,
2013-08-17 11:43:00,75.6,61.7,30.16,NNE,16,2.0,6.0,62,0.00,,FEW030,0.00,VWS V14.01,2013-08-17 16:43:00,
2013-08-17 11:48:00,75.6,60.8,30.15,North,352,1.0,6.0,60,0.00,,FEW030,0.00,VWS V14.01,2013-08-17 16:48:00,
2013-08-17 11:53:00,75.6,60.3,30.15,NE,55,0.0,6.0,59,0.00,,FEW030,0.00,VWS V14.01,2013-08-17 16:53:00,
2013-08-17 11:58:00,75.8,61.9,30.15,North,356,3.0,7.0,62,0.00,,FEW030,0.00,VWS V14.01,2013-08-17 16:58:00,
2013-08-17 12:03:00,76.5,61.6,30.15,NE,44,2.0,5.0,60,0.00,,FEW040,0.00,VWS V14.01,2013-08-17 17:03:00,
2013-08-17 12:08:00,76.5,60.2,30.15,WNW,289,1.0,6.0,57,0.00,,FEW040,0.00,VWS V14.01,2013-08-17 17:08:00,
2013-08-17 12:13:00,76.8,60.4,30.15,North,353,5.0,7.0,57,0.00,,FEW040,0.00,VWS V14.01,2013-08-17 17:13:00,
2013-08-17 12:18:00,77.0,60.6,30.15,NNE,13,2.0,7.0,57,0.00,,FEW040,0.00,VWS V14.01,2013-08-17 17:18:00,
2013-08-17 12:23:00,77.4,60.0,30.15,West,278,1.0,7.0,55,0.00,,FEW040,0.00,VWS V14.01,2013-08-17 17:23:00,
2013-08-17 12:28:00,77.7,62.2,30.15,North,3,2.0,7.0,59,0.00,,FEW040,0.00,VWS V14.01,2013-08-17 17:28:00,
2013-08-17 12:33:00,78.3,61.3,30.14,North,359,5.0,7.0,56,0.00,,FEW040,0.00,VWS V14.01,2013-08-17 17:33:00,
2013-08-17 12:38:00,78.5,59.4,30.14,NNE,13,0.0,7.0,52,0.00,,FEW040,0.00,VWS V14.01,2013-08-17 17:38:00,
2013-08-17 12:43:00,77.9,59.4,30.14,East,96,3.0,7.0,53,0.00,,FEW040,0.00,VWS V14.01,2013-08-17 17:43:00,
2013-08-17 12:48:00,77.4,61.0,30.14,NNW,342,2.0,7.0,57,0.00,,FEW040,0.00,VWS V14.01,2013-08-17 17:48:00,
2013-08-17 12:53:00,77.2,59.8,30.14,NNE,14,2.0,7.0,55,0.00,,FEW040,0.00,VWS V14.01,2013-08-17 17:53:00,
2013-08-17 12:58:00,77.2,59.3,30.14,NNW,347,2.0,7.0,54,0.00,,FEW040,0.00,VWS V14.01,2013-08-17 17:58:00,
2013-08-17 13:03:00,77.7,59.8,30.13,NE,52,0.0,7.0,54,0.00,,FEW040,0.00,VWS V14.01,2013-08-17 18:03:00,
2013-08-17 13:08:00,77.7,58.7,30.13,NNE,30,2.0,11.0,52,0.00,,FEW040,0.00,VWS V14.01,2013-08-17 18:08:00,
2013-08-17 13:13:00,77.9,60.5,30.13,NE,41,0.0,11.0,55,0.00,,FEW040,0.00,VWS V14.01,2013-08-17 18:13:00,
2013-08-17 13:19:00,77.9,59.9,30.12,North,7,2.0,11.0,54,0.00,,FEW040,0.00,VWS V14.01,2013-08-17 18:19:00,
2013-08-17 13:24:00,77.7,58.7,30.12,NE,42,3.0,11.0,52,0.00,,FEW040,0.00,VWS V14.01,2013-08-17 18:24:00,
2013-08-17 13:29:00,77.4,59.5,30.12,NNE,16,1.0,11.0,54,0.00,,FEW040,0.00,VWS V14.01,2013-08-17 18:29:00,
2013-08-17 13:34:00,77.6,59.7,30.12,North,0,0.0,11.0,54,0.00,,FEW040,0.00,VWS V14.01,2013-08-17 18:34:00,
2013-08-17 13:39:00,78.1,60.1,30.12,North,11,3.0,11.0,54,0.00,,FEW040,0.00,VWS V14.01,2013-08-17 18:39:00,
2013-08-17 13:44:00,77.9,59.4,30.12,West,261,0.0,14.0,53,0.00,,FEW040,0.00,VWS V14.01,2013-08-17 18:44:00,
2013-08-17 13:49:00,78.5,61.5,30.11,North,0,0.0,14.0,56,0.00,,FEW040,0.00,VWS V14.01,2013-08-17 18:49:00,
2013-08-17 13:54:00,78.5,60.5,30.11,NNE,24,5.0,14.0,54,0.00,,FEW040,0.00,VWS V14.01,2013-08-17 18:54:00,
2013-08-17 13:59:00,77.9,62.0,30.11,ENE,71,0.0,14.0,58,0.00,,FEW040,0.00,VWS V14.01,2013-08-17 18:59:00,
2013-08-17 14:04:00,77.7,62.2,30.11,NE,41,0.0,10.0,59,0.00,,FEW040,0.00,VWS V14.01,2013-08-17 19:04:00,
2013-08-17 14:09:00,77.7,60.3,30.11,North,359,1.0,10.0,55,0.00,,FEW040,0.00,VWS V14.01,2013-08-17 19:09:00,
2013-08-17 14:14:00,77.7,59.2,30.11,NE,35,2.0,10.0,53,0.00,,FEW040,0.00,VWS V14.01,2013-08-17 19:14:00,
2013-08-17 14:19:00,77.6,60.7,30.11,NNE,17,0.0,10.0,56,0.00,,FEW040,0.00,VWS V14.01,2013-08-17 19:19:00,
2013-08-17 14:24:00,77.7,61.3,30.11,NNE,24,0.0,10.0,57,0.00,,FEW040,0.00,VWS V14.01,2013-08-17 19:24:00,
2013-08-17 14:29:00,78.1,60.6,30.11,NE,44,1.0,10.0,55,0.00,,FEW040,0.00,VWS V14.01,2013-08-17 19:29:00,
2013-08-17 14:34:00,78.3,61.3,30.10,ENE,58,6.0,10.0,56,0.00,,FEW040,0.00,VWS V14.01,2013-08-17 19:34:00,
2013-08-17 14:39:00,78.8,62.3,30.10,NNE,18,0.0,10.0,57,0.00,,FEW040,0.00,VWS V14.01,2013-08-17 19:39:00,
2013-08-17 14:44:00,78.5,62.0,30.10,ENE,64,1.0,10.0,57,0.00,,FEW040,0.00,VWS V14.01,2013-08-17 19:44:00,
2013-08-17 14:49:00,77.7,59.2,30.10,NE,38,0.0,10.0,53,0.00,,FEW040,0.00,VWS V14.01,2013-08-17 19:49:00,
2013-08-17 14:54:00,77.7,60.3,30.10,ENE,73,5.0,10.0,55,0.00,,FEW040,0.00,VWS V14.01,2013-08-17 19:54:00,
2013-08-17 14:59:00,77.6,59.1,30.10,ENE,61,1.0,10.0,53,0.00,,FEW040,0.00,VWS V14.01,2013-08-17 19:59:00,
2013-08-17 15:04:00,78.1,60.1,30.10,North,11,1.0,3.0,54,0.00,,SCT047,0.00,VWS V14.01,2013-08-17 20:04:00,
2013-08-17 15:09:00,78.1,59.6,30.10,East,83,0.0,7.0,53,0.00,,SCT047,0.00,VWS V14.01,2013-08-17 20:09:00,
2013-08-17 15:14:00,77.9,60.5,30.09,NE,45,1.0,7.0,55,0.00,,SCT047,0.00,VWS V14.01,2013-08-17 20:14:00,
2013-08-17 15:19:00,77.9,61.0,30.09,NE,40,2.0,7.0,56,0.00,,SCT047,0.00,VWS V14.01,2013-08-17 20:19:00,
2013-08-17 15:24:00,77.9,62.0,30.09,East,82,1.0,7.0,58,0.00,,SCT047,0.00,VWS V14.01,2013-08-17 20:24:00,
2013-08-17 15:29:00,77.7,59.8,30.09,NW,309,3.0,7.0,54,0.00,,SCT047,0.00,VWS V14.01,2013-08-17 20:29:00,
2013-08-17 15:34:00,77.9,59.9,30.09,NE,41,0.0,7.0,54,0.00,,SCT047,0.00,VWS V14.01,2013-08-17 20:34:00,
2013-08-17 15:39:00,78.1,60.6,30.09,NW,323,1.0,7.0,55,0.00,,SCT047,0.00,VWS V14.01,2013-08-17 20:39:00,
2013-08-17 15:44:00,78.3,60.3,30.08,NNE,21,0.0,7.0,54,0.00,,SCT047,0.00,VWS V14.01,2013-08-17 20:44:00,
2013-08-17 15:49:00,78.1,60.1,30.08,NNE,21,2.0,7.0,54,0.00,,SCT047,0.00,VWS V14.01,2013-08-17 20:49:00,
2013-08-17 15:54:00,78.6,61.1,30.08,ESE,112,0.0,7.0,55,0.00,,SCT047,0.00,VWS V14.01,2013-08-17 20:54:00,
2013-08-17 15:59:00,78.8,60.8,30.07,ENE,75,0.0,7.0,54,0.00,,SCT047,0.00,VWS V14.01,2013-08-17 20:59:00,
2013-08-17 16:04:00,78.5,61.0,30.07,NE,40,2.0,3.0,55,0.00,,FEW050,0.00,VWS V14.01,2013-08-17 21:04:00,
2013-08-17 16:09:00,77.9,60.5,30.07,ENE,62,2.0,8.0,55,0.00,,FEW050,0.00,VWS V14.01,2013-08-17 21:09:00,
2013-08-17 16:14:00,78.3,60.3,30.07,North,0,2.0,8.0,54,0.00,,FEW050,0.00,VWS V14.01,2013-08-17 21:14:00,
2013-08-17 16:19:00,78.3,59.8,30.07,NE,44,2.0,8.0,53,0.00,,FEW050,0.00,VWS V14.01,2013-08-17 21:19:00,
2013-08-17 16:24:00,78.5,60.0,30.07,NNW,347,5.0,8.0,53,0.00,,FEW050,0.00,VWS V14.01,2013-08-17 21:24:00,
2013-08-17 16:29:00,78.3,59.2,30.07,NNE,16,2.0,8.0,52,0.00,,FEW050,0.00,VWS V14.01,2013-08-17 21:29:00,
2013-08-17 16:34:00,78.5,60.5,30.07,NNE,23,0.0,8.0,54,0.00,,FEW050,0.00,VWS V14.01,2013-08-17 21:34:00,
2013-08-17 16:39:00,78.3,58.7,30.07,NE,45,0.0,8.0,51,0.00,,FEW050,0.00,VWS V14.01,2013-08-17 21:39:00,
2013-08-17 16:44:00,78.6,60.6,30.07,North,10,2.0,8.0,54,0.00,,FEW050,0.00,VWS V14.01,2013-08-17 21:44:00,
2013-08-17 16:49:00,79.0,60.4,30.07,NE,44,0.0,8.0,53,0.00,,FEW050,0.00,VWS V14.01,2013-08-17 21:49:00,
2013-08-17 16:54:00,78.8,59.2,30.07,NNE,31,0.0,8.0,51,0.00,,FEW050,0.00,VWS V14.01,2013-08-17 21:54:00,
2013-08-17 16:59:00,79.2,61.7,30.07,North,10,0.0,8.0,55,0.00,,FEW050,0.00,VWS V14.01,2013-08-17 21:59:00,
2013-08-17 17:05:00,79.0,61.0,30.07,ENE,58,0.0,5.0,54,0.00,,FEW050,0.00,VWS V14.01,2013-08-17 22:05:00,
2013-08-17 17:10:00,78.6,60.1,30.07,ENE,73,0.0,7.0,53,0.00,,FEW050,0.00,VWS V14.01,2013-08-17 22:10:00,
2013-08-17 17:15:00,78.5,61.0,30.06,ENE,72,3.0,7.0,55,0.00,,FEW050,0.00,VWS V14.01,2013-08-17 22:15:00,
2013-08-17 17:20:00,78.3,60.3,30.06,North,8,2.0,7.0,54,0.00,,FEW050,0.00,VWS V14.01,2013-08-17 22:20:00,
2013-08-17 17:25:00,78.5,61.0,30.06,North,359,0.0,7.0,55,0.00,,FEW050,0.00,VWS V14.01,2013-08-17 22:25:00,
2013-08-17 17:30:00,78.3,60.8,30.07,NE,49,5.0,7.0,55,0.00,,FEW050,0.00,VWS V14.01,2013-08-17 22:30:00,
2013-08-17 17:35:00,77.9,60.5,30.07,East,82,3.0,7.0,55,0.00,,FEW050,0.00,VWS V14.01,2013-08-17 22:35:00,
2013-08-17 17:40:00,77.9,62.0,30.07,ENE,65,1.0,7.0,58,0.00,,FEW050,0.00,VWS V14.01,2013-08-17 22:40:00,
2013-08-17 17:45:00,77.9,61.5,30.06,ENE,64,2.0,7.0,57,0.00,,FEW050,0.00,VWS V14.01,2013-08-17 22:45:00,
2013-08-17 17:50:00,78.1,61.1,30.06,NE,42,1.0,7.0,56,0.00,,FEW050,0.00,VWS V14.01,2013-08-17 22:50:00,
2013-08-17 17:55:00,78.5,61.0,30.06,North,356,2.0,7.0,55,0.00,,FEW050,0.00,VWS V14.01,2013-08-17 22:55:00,
2013-08-17 18:00:00,78.1,61.1,30.06,NE,45,2.0,7.0,56,0.00,,FEW050,0.00,VWS V14.01,2013-08-17 23:00:00,
2013-08-17 18:05:00,77.9,60.5,30.06,ENE,64,2.0,5.0,55,0.00,,FEW050,0.00,VWS V14.01,2013-08-17 23:05:00,
2013-08-17 18:10:00,77.7,60.3,30.06,East,79,5.0,6.0,55,0.00,,FEW050,0.00,VWS V14.01,2013-08-17 23:10:00,
2013-08-17 18:15:00,77.7,60.3,30.06,ENE,72,6.0,7.0,55,0.00,,FEW050,0.00,VWS V14.01,2013-08-17 23:15:00,
2013-08-17 18:20:00,77.6,61.2,30.06,East,86,3.0,7.0,57,0.00,,FEW050,0.00,VWS V14.01,2013-08-17 23:20:00,
2013-08-17 18:25:00,77.6,61.2,30.06,ENE,76,5.0,7.0,57,0.00,,FEW050,0.00,VWS V14.01,2013-08-17 23:25:00,
2013-08-17 18:30:00,77.4,61.5,30.05,ENE,65,2.0,7.0,58,0.00,,FEW050,0.00,VWS V14.01,2013-08-17 23:30:00,
2013-08-17 18:35:00,77.0,61.6,30.05,ENE,71,0.0,7.0,59,0.00,,FEW050,0.00,VWS V14.01,2013-08-17 23:35:00,
2013-08-17 18:40:00,76.8,60.4,30.05,ENE,68,1.0,7.0,57,0.00,,FEW050,0.00,VWS V14.01,2013-08-17 23:40:00,
2013-08-17 18:45:00,76.7,60.8,30.05,East,97,0.0,7.0,58,0.00,,FEW050,0.00,VWS V14.01,2013-08-17 23:45:00,
2013-08-17 18:50:00,76.8,61.4,30.05,East,82,1.0,7.0,59,0.00,,FEW050,0.00,VWS V14.01,2013-08-17 23:50:00,
2013-08-17 18:55:00,76.8,61.9,30.05,ENE,61,2.0,7.0,60,0.00,,FEW050,0.00,VWS V14.01,2013-08-17 23:55:00,
2013-08-17 19:00:00,76.8,61.4,30.05,ENE,64,0.0,0.0,59,0.00,,FEW050,0.00,VWS V14.01,2013-08-18 00:00:00,
2013-08-17 19:05:00,77.0,60.6,30.05,North,354,0.0,3.0,57,0.00,,FEW050,0.00,VWS V14.01,2013-08-18 00:05:00,
2013-08-17 19:10:00,76.8,61.4,30.05,NNE,25,0.0,3.0,59,0.00,,FEW050,0.00,VWS V14.01,2013-08-18 00:10:00,
2013-08-17 19:15:00,76.8,60.9,30.05,North,6,0.0,3.0,58,0.00,,FEW050,0.00,VWS V14.01,2013-08-18 00:15:00,
2013-08-17 19:20:00,76.7,60.3,30.05,North,6,0.0,3.0,57,0.00,,FEW050,0.00,VWS V14.01,2013-08-18 00:20:00,
2013-08-17 19:25:00,76.5,60.6,30.05,North,6,0.0,3.0,58,0.00,,FEW050,0.00,VWS V14.01,2013-08-18 00:25:00,
2013-08-17 19:30:00,76.3,60.9,30.05,North,6,0.0,3.0,59,0.00,,FEW050,0.00,VWS V14.01,2013-08-18 00:30:00,
2013-08-17 19:35:00,76.1,61.2,30.05,North,6,0.0,3.0,60,0.00,,FEW050,0.00,VWS V14.01,2013-08-18 00:35:00,
2013-08-17 19:40:00,76.1,61.7,30.05,North,6,0.0,3.0,61,0.00,,FEW050,0.00,VWS V14.01,2013-08-18 00:40:00,
2013-08-17 19:45:00,75.8,61.9,30.05,North,6,0.0,3.0,62,0.00,,FEW050,0.00,VWS V14.01,2013-08-18 00:45:00,
2013-08-17 19:50:00,75.4,61.9,30.05,North,6,0.0,3.0,63,0.00,,FEW050,0.00,VWS V14.01,2013-08-18 00:50:00,
2013-08-17 19:55:00,75.3,61.8,30.05,North,6,0.0,3.0,63,0.00,,FEW050,0.00,VWS V14.01,2013-08-18 00:55:00,
2013-08-17 20:00:00,74.9,61.9,30.06,North,6,0.0,0.0,64,0.00,,CLR,0.00,VWS V14.01,2013-08-18 01:00:00,
2013-08-17 20:05:00,74.7,62.2,30.06,North,6,0.0,0.0,65,0.00,,CLR,0.00,VWS V14.01,2013-08-18 01:05:00,
2013-08-17 20:10:00,74.4,61.9,30.06,North,6,0.0,0.0,65,0.00,,CLR,0.00,VWS V14.01,2013-08-18 01:10:00,
2013-08-17 20:15:00,74.2,61.7,30.06,North,6,0.0,0.0,65,0.00,,CLR,0.00,VWS V14.01,2013-08-18 01:15:00,
2013-08-17 20:20:00,73.9,61.8,30.06,North,6,0.0,0.0,66,0.00,,CLR,0.00,VWS V14.01,2013-08-18 01:20:00,
2013-08-17 20:25:00,73.7,62.1,30.06,North,6,0.0,0.0,67,0.00,,CLR,0.00,VWS V14.01,2013-08-18 01:25:00,
2013-08-17 20:30:00,73.3,61.7,30.06,North,6,0.0,0.0,67,0.00,,CLR,0.00,VWS V14.01,2013-08-18 01:30:00,
2013-08-17 20:35:00,73.2,61.6,30.06,North,6,0.0,0.0,67,0.00,,CLR,0.00,VWS V14.01,2013-08-18 01:35:00,
2013-08-17 20:41:00,72.8,61.6,30.06,North,6,0.0,0.0,68,0.00,,CLR,0.00,VWS V14.01,2013-08-18 01:41:00,
2013-08-17 20:46:00,72.5,61.8,30.06,North,6,0.0,0.0,69,0.00,,CLR,0.00,VWS V14.01,2013-08-18 01:46:00,
2013-08-17 20:51:00,72.1,61.8,30.06,North,6,0.0,0.0,70,0.00,,CLR,0.00,VWS V14.01,2013-08-18 01:51:00,
2013-08-17 20:56:00,71.8,61.9,30.06,North,6,0.0,0.0,71,0.00,,CLR,0.00,VWS V14.01,2013-08-18 01:56:00,
2013-08-17 21:01:00,71.6,61.7,30.06,North,6,0.0,0.0,71,0.00,,CLR,0.00,VWS V14.01,2013-08-18 02:01:00,
2013-08-17 21:06:00,71.5,62.0,30.06,North,6,0.0,0.0,72,0.00,,CLR,0.00,VWS V14.01,2013-08-18 02:06:00,
2013-08-17 21:11:00,71.5,62.4,30.06,North,6,0.0,0.0,73,0.00,,CLR,0.00,VWS V14.01,2013-08-18 02:11:00,
2013-08-17 21:16:00,71.3,62.6,30.07,North,6,0.0,0.0,74,0.00,,CLR,0.00,VWS V14.01,2013-08-18 02:16:00,
2013-08-17 21:21:00,71.3,63.0,30.07,North,6,0.0,0.0,75,0.00,,CLR,0.00,VWS V14.01,2013-08-18 02:21:00,
2013-08-17 21:26:00,71.3,63.0,30.07,North,6,0.0,0.0,75,0.00,,CLR,0.00,VWS V14.01,2013-08-18 02:26:00,
2013-08-17 21:31:00,71.1,62.8,30.07,North,6,0.0,0.0,75,0.00,,CLR,0.00,VWS V14.01,2013-08-18 02:31:00,
2013-08-17 21:36:00,70.9,62.6,30.07,North,6,0.0,0.0,75,0.00,,CLR,0.00,VWS V14.01,2013-08-18 02:36:00,
2013-08-17 21:41:00,70.8,62.9,30.07,North,6,0.0,0.0,76,0.00,,CLR,0.00,VWS V14.01,2013-08-18 02:41:00,
2013-08-17 21:46:00,70.6,62.7,30.08,North,6,0.0,0.0,76,0.00,,CLR,0.00,VWS V14.01,2013-08-18 02:46:00,
2013-08-17 21:51:00,70.6,62.7,30.08,North,6,0.0,0.0,76,0.00,,CLR,0.00,VWS V14.01,2013-08-18 02:51:00,
2013-08-17 21:56:00,70.4,62.8,30.08,North,6,0.0,0.0,77,0.00,,CLR,0.00,VWS V14.01,2013-08-18 02:56:00,
2013-08-17 22:01:00,70.3,62.8,30.08,North,6,0.0,0.0,77,0.00,,CLR,0.00,VWS V14.01,2013-08-18 03:01:00,
2013-08-17 22:06:00,70.1,62.6,30.08,North,6,0.0,0.0,77,0.00,,CLR,0.00,VWS V14.01,2013-08-18 03:06:00,
2013-08-17 22:11:00,70.1,62.9,30.08,North,6,0.0,0.0,78,0.00,,CLR,0.00,VWS V14.01,2013-08-18 03:11:00,
2013-08-17 22:16:00,69.9,62.7,30.08,North,6,0.0,0.0,78,0.00,,CLR,0.00,VWS V14.01,2013-08-18 03:16:00,
2013-08-17 22:21:00,69.9,62.7,30.08,North,6,0.0,0.0,78,0.00,,CLR,0.00,VWS V14.01,2013-08-18 03:21:00,
2013-08-17 22:26:00,69.8,63.0,30.08,North,6,0.0,0.0,79,0.00,,CLR,0.00,VWS V14.01,2013-08-18 03:26:00,
2013-08-17 22:31:00,69.6,62.8,30.09,North,6,0.0,0.0,79,0.00,,CLR,0.00,VWS V14.01,2013-08-18 03:31:00,
2013-08-17 22:36:00,69.6,62.8,30.09,North,6,0.0,0.0,79,0.00,,CLR,0.00,VWS V14.01,2013-08-18 03:36:00,
2013-08-17 22:41:00,69.6,62.8,30.09,North,6,0.0,0.0,79,0.00,,CLR,0.00,VWS V14.01,2013-08-18 03:41:00,
2013-08-17 22:46:00,69.4,63.0,30.09,North,6,0.0,0.0,80,0.00,,CLR,0.00,VWS V14.01,2013-08-18 03:46:00,
2013-08-17 22:51:00,69.3,62.9,30.09,North,6,0.0,0.0,80,0.00,,CLR,0.00,VWS V14.01,2013-08-18 03:51:00,
2013-08-17 22:56:00,69.3,62.9,30.09,North,6,0.0,0.0,80,0.00,,CLR,0.00,VWS V14.01,2013-08-18 03:56:00,
2013-08-17 23:01:00,69.3,62.9,30.09,North,6,0.0,0.0,80,0.00,,CLR,0.00,VWS V14.01,2013-08-18 04:01:00,
2013-08-17 23:02:00,69.3,62.9,30.09,North,6,0.0,0.0,80,0.00,,CLR,0.00,VWS V14.01,2013-08-18 04:02:00,
2013-08-17 23:03:00,69.3,62.9,30.09,North,6,0.0,0.0,80,0.00,,CLR,0.00,VWS V14.01,2013-08-18 04:03:00,
2013-08-17 23:06:00,69.1,62.7,30.09,North,6,0.0,0.0,80,0.00,,CLR,0.00,VWS V14.01,2013-08-18 04:06:00,
2013-08-17 23:11:00,69.1,62.7,30.09,North,6,0.0,0.0,80,0.00,,CLR,0.00,VWS V14.01,2013-08-18 04:11:00,
2013-08-17 23:16:00,69.1,62.7,30.09,North,6,0.0,0.0,80,0.00,,CLR,0.00,VWS V14.01,2013-08-18 04:16:00,
2013-08-17 23:21:00,68.9,62.5,30.09,North,6,0.0,0.0,80,0.00,,CLR,0.00,VWS V14.01,2013-08-18 04:21:00,
2013-08-17 23:26:00,68.9,62.5,30.09,North,6,0.0,0.0,80,0.00,,CLR,0.00,VWS V14.01,2013-08-18 04:26:00,
2013-08-17 23:31:00,68.9,62.5,30.09,North,6,0.0,0.0,80,0.00,,CLR,0.00,VWS V14.01,2013-08-18 04:31:00,
2013-08-17 23:36:00,68.9,62.5,30.09,North,6,0.0,0.0,80,0.00,,CLR,0.00,VWS V14.01,2013-08-18 04:36:00,
2013-08-17 23:41:00,68.9,62.5,30.09,North,6,0.0,0.0,80,0.00,,CLR,0.00,VWS V14.01,2013-08-18 04:41:00,
2013-08-17 23:46:00,68.8,62.4,30.09,North,6,0.0,0.0,80,0.00,,CLR,0.00,VWS V14.01,2013-08-18 04:46:00,
2013-08-17 23:51:00,68.8,62.4,30.09,North,6,0.0,1.0,80,0.00,,CLR,0.00,VWS V14.01,2013-08-18 04:51:00,
2013-08-17 23:56:00,68.8,62.4,30.09,North,6,0.0,1.0,80,0.00,,CLR,0.00,VWS V14.01,2013-08-18 04:56:00,